CST,Max TemperatureF,Mean TemperatureF,Min TemperatureF,Max Dew PointF,MeanDew PointF,Min DewpointF,Max Humidity, Mean Humidity, Min Humidity, Max Sea Level PressureIn, Mean Sea Level PressureIn, Min Sea Level PressureIn, Max VisibilityMiles, Mean VisibilityMiles, Min VisibilityMiles, Max Wind SpeedMPH, Mean Wind SpeedMPH, Max Gust SpeedMPH,PrecipitationIn, CloudCover, Events, WindDirDegrees
2012-10-1,91,83,75,79,76,74,100,73,52,29.85,29.78,29.72,16,9,6,7,3,,0.00,2,,116
2012-10-2,91,84,77,77,76,73,100,81,60,29.95,29.85,29.82,12,8,6,10,3,,0.00,6,Rain-Thunderstorm,294
2012-10-3,85,80,74,77,76,73,100,86,69,30.03,29.97,29.92,12,7,1,9,5,,1.18,6,Rain-Thunderstorm,37
2012-10-4,86,80,73,79,76,72,100,85,66,30.06,30.00,29.94,12,8,6,12,5,,1.50,5,Rain-Thunderstorm,24
2012-10-5,86,80,74,79,76,74,100,87,71,30.01,29.94,29.87,12,8,2,10,3,,0.51,6,Rain,29
2012-10-6,85,79,73,79,76,73,100,90,74,29.93,29.88,29.80,12,6,0,14,4,,1.18,6,Fog-Rain-Thunderstorm,308
2012-10-7,84,80,75,79,76,73,100,87,72,29.91,29.86,29.80,14,8,6,9,4,,0.00,6,Rain-Thunderstorm,314
2012-10-8,88,81,74,78,76,73,100,83,59,29.97,29.91,29.85,12,7,0,7,3,,0.00,6,Fog,17
2012-10-9,87,82,76,81,77,75,100,86,65,29.99,29.94,29.87,16,7,0,9,3,,0.02,5,Fog-Rain,322
2012-10-10,83,79,75,79,77,75,100,91,75,29.98,29.93,29.85,12,7,0,8,4,,0.51,6,Rain-Thunderstorm,359
2012-10-11,87,82,77,79,78,77,100,85,69,30.00,29.95,29.89,12,7,0,15,6,,0.55,5,Rain-Thunderstorm,79
2012-10-12,85,80,75,78,75,72,100,85,60,30.03,29.98,29.92,12,7,2,16,6,,0.67,5,Rain-Thunderstorm,49
2012-10-13,85,79,73,77,75,72,100,80,65,30.01,29.97,29.92,12,7,2,10,6,,0.16,4,Rain,18
2012-10-14,83,78,72,77,75,72,100,87,71,29.99,29.94,29.89,12,7,1,12,3,,0.24,5,Rain,286
2012-10-15,87,80,73,77,75,73,100,80,60,29.95,29.88,29.80,12,8,6,10,6,,0.00,4,,306
2012-10-16,89,81,73,77,74,70,100,80,52,29.92,29.85,29.77,12,8,6,9,5,,0.00,3,,285
2012-10-17,89,80,72,77,74,71,94,76,54,29.90,29.83,29.76,16,9,6,8,3,,0.00,5,,54
2012-10-18,89,82,75,79,76,75,100,80,59,29.87,29.82,29.78,16,8,6,7,2,,0.00,2,,114
2012-10-19,89,82,76,79,77,75,95,78,60,29.88,29.83,29.78,16,8,4,10,3,,0.00,2,Rain,64
2012-10-20,81,78,76,79,77,75,100,94,85,29.91,29.84,29.77,12,6,1,12,6,,1.38,6,Rain-Thunderstorm,346
2012-10-21,82,78,74,77,76,74,100,96,84,29.90,29.86,29.80,12,6,0,10,4,,0.55,6,Fog-Rain-Thunderstorm,290
2012-10-22,86,80,75,78,75,73,96,83,65,29.93,29.85,29.78,12,7,5,9,4,,0.51,5,Rain,29
2012-10-23,87,81,75,77,76,74,100,85,66,29.86,29.81,29.75,12,7,1,9,6,,0.35,4,,351
2012-10-24,86,80,74,77,74,72,98,80,60,29.89,29.81,29.75,16,8,4,13,7,,0.04,3,Rain,347
2012-10-25,88,80,73,77,73,70,94,73,51,29.87,29.82,29.76,16,8,6,9,5,,0.00,3,,301
2012-10-26,88,80,71,75,72,68,100,71,43,29.88,29.83,29.78,16,8,6,8,4,,0.00,2,,309
2012-10-27,88,79,70,76,71,68,95,71,43,29.94,29.88,29.82,16,9,6,12,6,,0.00,1,,310
2012-10-28,86,78,71,74,71,66,100,73,49,29.98,29.92,29.87,16,9,6,8,5,,0.00,3,,19
2012-10-29,83,77,71,73,71,69,94,76,58,30.04,29.98,29.94,12,8,6,12,5,,0.00,5,,329
2012-10-30,81,74,68,69,65,63,94,67,46,30.08,30.02,29.97,12,8,6,8,5,,0.00,4,,28
2012-10-31,83,76,69,72,68,64,94,72,52,30.07,30.01,29.97,12,8,6,9,6,,0.00,4,,25